Location: Anumalkud?ru
(16.4847°N, 80.6636°E)
Time: 22:42:02
(UTC+00:00)

ASC 2 Rocket - Pass Details

Date: 11 April 2026
Orbit: 555 x 2327 km, 24.0° (Epoch: 9 May)

Event Time Altitude Azimuth Distance (km) Brightness Sun altitude
Rises 13:01:11 0° 244° (WSW) 3,763 8.1 -3.0°
Reaches altitude 10° 13:04:19 10° 241° (WSW) 2,548 7.1 -3.7°
Maximum altitude 13:10:02 65° 160° (SSE) 751 3.4 -5.1°
Drops below altitude 10° 13:14:18 10° 78° (ENE) 1,913 5.0 -6.1°
Enters shadow 13:15:11 - 77° (ENE) 2,269 5.4 -6.3°
